time_stamp(utc),avg(mph),gust(mph),direction(deg),12m_air_temp(f),sonic_u(cm/s),sonic_v(cm/s),sonic_w(cm/s),pressure,2m_air_temp(f),pyranometer(W/m^2)
"2020-10-30 00:02:39+00",30.9,40.9,,57.8,529,1200,25,997.52,57.1,0
"2020-10-30 00:07:39+00",33.1,40.1,,57.6,600,1341,14,997.82,56.8,0
"2020-10-30 00:12:39+00",35.5,41.5,,57.5,692,1402,7,998.06,56.8,0
"2020-10-30 00:17:39+00",34.5,40.5,,57.1,599,1375,-5,998.07,56.4,0
"2020-10-30 00:22:39+00",33.9,40.9,,56.9,596,1370,10,998.3,56.3,0
"2020-10-30 00:27:39+00",32.9,37.9,,56.3,494,1321,3,998.24,56,0
"2020-10-30 00:32:39+00",29.6,37.6,,56.1,563,1210,16,998.46,55.8,0
"2020-10-30 00:37:39+00",31.6,35.6,,55.6,468,1291,-25,998.83,55.3,0
"2020-10-30 00:42:39+00",32.2,37.2,,55.2,596,1316,6,999.1,54.9,0
"2020-10-30 00:47:39+00",29.5,35.5,,55.1,523,1160,1,999.32,54.7,0
"2020-10-30 00:52:39+00",26.9,32.9,,55.1,490,1055,11,999.55,54.6,0
"2020-10-30 00:57:39+00",26.9,32.9,,55.1,636,948,29,999.56,54.7,0
"2020-10-30 01:02:39+00",29.0,35.0,,55.2,528,1165,-5,1000,54.7,0
"2020-10-30 01:07:39+00",26.8,32.8,,54.9,377,1096,19,1000.13,54.5,0
"2020-10-30 01:12:39+00",23.7,26.7,,54.6,521,885,12,1000.17,54.4,0
"2020-10-30 01:17:39+00",28.9,33.9,,54.2,520,1137,-4,1000.23,54,0
"2020-10-30 01:22:39+00",29.6,34.6,,54,644,1104,1,1000.2,53.7,0
"2020-10-30 01:27:39+00",27.8,31.8,,53.8,498,1103,-7,1000.49,53.6,0
"2020-10-30 01:32:39+00",25.9,29.9,,53.9,517,1019,-3,1000.64,53.7,0
"2020-10-30 01:37:39+00",26.0,31.0,,53.8,578,950,2,1000.52,53.5,0
"2020-10-30 01:42:39+00",27.7,30.7,,53.6,592,1030,10,1000.58,53.3,0
"2020-10-30 01:47:39+00",25.5,30.5,,53.5,545,987,3,1000.58,53.3,0
"2020-10-30 01:52:39+00",20.6,26.6,,53.6,420,811,-2,1000.89,53.2,0
"2020-10-30 01:57:39+00",26.9,31.9,,53.6,1377,792,-297,1000.49,53.1,0
"2020-10-30 02:02:39+00",27.2,32.2,,53.4,1008,756,-1,1000.58,53.1,0
"2020-10-30 02:07:39+00",29.1,33.1,,53.5,655,1016,66,1000.74,53.1,0
"2020-10-30 02:12:39+00",26.3,29.3,,53.5,909,832,-76,1000.71,53.2,0
"2020-10-30 02:17:39+00",29.1,35.1,,53.7,956,855,98,1000.61,53.3,0
"2020-10-30 02:22:39+00",28.8,33.8,,53.6,742,896,129,1000.7,53.3,0
"2020-10-30 02:27:39+00",25.2,28.2,,53.6,840,795,-33,1000.93,53.3,0
"2020-10-30 02:32:39+00",22.8,28.8,,53.5,661,732,51,1001.21,53.2,0
"2020-10-30 02:37:39+00",28.5,31.5,,53.4,771,929,14,1001.26,53.1,0
"2020-10-30 02:42:39+00",27.2,32.2,,53.1,670,953,-13,1001.17,53,0
"2020-10-30 02:47:39+00",29.8,33.8,,53.2,1295,887,-154,1000.96,53,0
"2020-10-30 02:52:39+00",31.0,35.0,,53.1,859,1049,-22,1001.02,53,0
"2020-10-30 02:57:39+00",26.5,32.5,,53.3,806,908,-25,1001.3,53.1,0
"2020-10-30 03:02:39+00",26.3,29.3,,53.2,752,852,-1,1001.25,53,0
"2020-10-30 03:07:39+00",31.5,34.5,,53.2,1069,996,-67,1001.12,53,0
"2020-10-30 03:12:39+00",27.2,32.2,,53.4,1000,770,39,1000.94,53.2,0
"2020-10-30 03:17:39+00",24.9,28.9,,53.7,957,749,-52,1000.79,53.2,0
"2020-10-30 03:22:39+00",24.7,28.7,,53.6,832,702,71,1000.67,53.1,0
"2020-10-30 03:27:39+00",28.6,31.6,,53.6,1022,805,42,1000.83,53.1,0
"2020-10-30 03:32:39+00",29.3,34.3,,53.5,1090,916,-32,1001.07,53.2,0
"2020-10-30 03:37:39+00",25.1,29.1,,53.5,1013,756,-55,1001.2,53.2,0
"2020-10-30 03:42:39+00",31.4,36.4,,53.2,1246,1017,-168,1001.01,52.8,0
"2020-10-30 03:47:39+00",26.9,31.9,,53.3,929,857,-52,1000.96,53,0
"2020-10-30 03:52:39+00",25.3,29.3,,53.3,849,740,70,1001.03,52.9,0
"2020-10-30 03:57:39+00",30.3,35.3,,53.1,1101,925,-66,1000.84,52.7,0
"2020-10-30 04:02:39+00",27.6,31.6,,53.2,922,974,-157,1001.36,52.8,0
"2020-10-30 04:07:39+00",24.0,28.0,,53.1,640,887,-85,1001.62,52.8,0
"2020-10-30 04:12:39+00",25.9,30.9,,53,687,905,-45,1001.59,52.8,0
"2020-10-30 04:17:39+00",25.9,28.9,,52.9,789,943,-123,1001.64,52.7,0
"2020-10-30 04:22:39+00",27.1,31.1,,52.8,852,886,-52,1001.54,52.6,0
"2020-10-30 04:27:39+00",24.5,27.5,,52.8,662,845,-38,1001.84,52.5,0
"2020-10-30 04:32:39+00",25.2,29.2,,52.7,712,872,-52,1001.95,52.4,0
"2020-10-30 04:37:39+00",29.8,33.8,,52.5,673,1094,-42,1001.83,52.2,0
"2020-10-30 04:42:39+00",28.1,31.1,,52.5,679,1117,-134,1001.83,52.3,0
"2020-10-30 04:47:39+00",26.9,31.9,,52.4,898,1012,-210,1002.02,52.4,0
"2020-10-30 04:52:39+00",28.5,32.5,,52.2,924,988,-171,1002.15,51.9,0
"2020-10-30 04:57:39+00",25.8,29.8,,52.4,689,980,-106,1002.05,52.1,0
"2020-10-30 05:02:39+00",23.8,28.8,,52.4,1036,822,-237,1002.02,52.2,0
"2020-10-30 05:07:39+00",25.2,29.2,,52.6,862,882,-152,1002.36,52.3,0
"2020-10-30 05:12:39+00",24.2,28.2,,52.5,674,908,-81,1002.57,52.3,0
"2020-10-30 05:17:39+00",20.3,22.3,,52.6,576,743,-45,1002.57,52.3,0
"2020-10-30 05:22:39+00",22.2,25.2,,52.6,739,808,-134,1002.33,52.3,0
"2020-10-30 05:27:39+00",27.3,30.3,,52.6,993,992,-202,1002.38,52.3,0
"2020-10-30 05:32:39+00",26.2,30.2,,52.6,1009,955,-260,1002.56,52.3,0
"2020-10-30 05:37:39+00",27.0,32.0,,52.7,885,989,-156,1002.31,52.3,0
"2020-10-30 05:42:39+00",29.0,33.0,,52.8,1091,931,-121,1002.06,52.4,0
"2020-10-30 05:47:39+00",26.7,30.7,,52.8,1183,828,-169,1001.88,52.5,0
"2020-10-30 05:52:39+00",27.3,30.3,,52.8,1470,753,-244,1001.71,52.5,0
"2020-10-30 05:57:39+00",27.9,32.9,,52.8,1694,741,-348,1001.82,52.2,0
"2020-10-30 06:02:39+00",24.4,27.4,,53.1,838,731,23,1001.9,52.4,0
"2020-10-30 06:07:39+00",26.1,30.1,,53.2,840,791,45,1001.88,52.5,0
"2020-10-30 06:12:39+00",27.2,30.2,,53.2,979,791,28,1001.75,52.5,0
"2020-10-30 06:17:39+00",29.5,33.5,,53.2,1094,845,13,1001.3,52.5,0
"2020-10-30 06:22:39+00",29.1,32.1,,53.3,1297,848,-90,1001.37,52.6,0
"2020-10-30 06:27:39+00",27.8,33.8,,53.2,926,938,-78,1001.09,52.5,0
"2020-10-30 06:32:39+00",32.7,36.7,,53.3,1171,1004,-50,1001.05,52.6,0
"2020-10-30 06:37:39+00",28.5,32.5,,53.4,1081,810,2,1001.14,52.7,0
"2020-10-30 06:42:39+00",22.3,27.3,,53.4,706,653,43,1001.3,52.7,0
"2020-10-30 06:47:39+00",23.0,29.0,,53.3,609,862,-60,1000.65,52.7,0
"2020-10-30 06:52:39+00",30.4,34.4,,53.2,1251,913,-123,1000.2,52.5,0
"2020-10-30 06:57:39+00",30.6,33.6,,53.1,1205,1023,-242,1000.51,52.6,0
"2020-10-30 07:02:39+00",22.0,26.0,,53.2,581,784,-37,1001.4,52.7,0
"2020-10-30 07:07:39+00",27.5,32.5,,52.8,852,971,-116,1001.37,52.3,0
"2020-10-30 07:12:39+00",26.6,32.6,,52.8,814,899,-42,1001.46,52.2,0
"2020-10-30 07:17:39+00",27.6,32.6,,52.7,825,985,-121,1001.58,51.9,0
"2020-10-30 07:22:39+00",26.6,30.6,,52.5,872,933,-110,1001.6,51.9,0
"2020-10-30 07:27:39+00",27.2,32.2,,52.4,798,909,-32,1001.54,51.9,0
"2020-10-30 07:32:39+00",27.2,36.2,,52.5,866,937,-79,1001.09,52,0
"2020-10-30 07:37:39+00",32.5,36.5,,52.4,1527,1053,-308,1001.04,51.9,0
"2020-10-30 07:42:39+00",29.0,32.0,,52.3,917,945,-67,1000.88,51.8,0
"2020-10-30 07:47:39+00",29.7,34.7,,52.1,1035,1009,-136,1000.87,51.7,0
"2020-10-30 07:52:39+00",29.9,32.9,,51.8,1060,1002,-170,1000.66,51.3,0
"2020-10-30 07:57:39+00",28.0,32.0,,52,919,968,-151,1000.62,51.6,0
"2020-10-30 08:02:39+00",27.0,31.0,,51.9,782,890,-47,1000.37,51.5,0
"2020-10-30 08:07:39+00",30.4,36.4,,51.9,983,1002,-69,1000.54,51.3,0
"2020-10-30 08:12:39+00",31.8,35.8,,51.9,1164,1068,-206,1000.14,51.5,0
"2020-10-30 08:17:39+00",32.2,38.2,,51.9,1444,995,-239,1000.1,51.5,0
"2020-10-30 08:22:39+00",30.4,35.4,,51.9,1167,953,-94,1000.36,51.5,0
"2020-10-30 08:27:39+00",23.6,29.6,,52,782,836,-109,1000.63,51.7,0
"2020-10-30 08:32:39+00",26.5,31.5,,51.9,865,951,-134,1000.53,51.5,0
"2020-10-30 08:37:39+00",22.4,27.4,,52.2,713,776,-34,1000.83,51.7,0
"2020-10-30 08:42:39+00",25.5,28.5,,52.1,709,891,-46,1000.54,51.5,0
"2020-10-30 08:47:39+00",25.5,28.5,,51.8,749,881,-27,1000.6,51.7,0
"2020-10-30 08:52:39+00",32.3,38.3,,51.7,985,1061,-73,1000.39,51.8,0
"2020-10-30 08:57:39+00",27.8,34.8,,51.1,1220,856,-151,1000.95,51.4,0
"2020-10-30 09:02:39+00",29.6,36.6,,51.3,1135,1122,-333,1000.91,51.3,0
"2020-10-30 09:07:39+00",27.0,32.0,,51.3,1063,970,-266,1001.4,51.2,0
"2020-10-30 09:12:39+00",33.3,38.3,,51.2,1839,567,8,1001.51,50.9,0
"2020-10-30 09:17:39+00",31.1,36.1,,51.3,1337,920,-146,1001.5,50.8,0
"2020-10-30 09:22:39+00",29.9,33.9,,51.1,1090,1010,-168,1001.06,50.7,0
"2020-10-30 09:27:39+00",28.1,34.1,,51,1535,715,-214,1001.55,50.6,0
"2020-10-30 09:32:39+00",24.4,28.4,,50.8,707,931,-196,1001.69,50.4,0
"2020-10-30 09:37:39+00",31.6,34.6,,51,1255,1079,-298,1001.14,50.6,0
"2020-10-30 09:42:39+00",30.6,35.6,,51.4,1241,1011,-228,1001.13,51.2,0
"2020-10-30 09:47:39+00",30.0,36.0,,51.4,1386,933,-239,1001,51.3,0
"2020-10-30 09:52:39+00",33.2,39.2,,51.8,1685,982,-313,1000.96,51.5,0
"2020-10-30 09:57:39+00",33.4,39.4,,51.8,1331,1064,-213,1001.08,51.5,0
"2020-10-30 10:02:39+00",33.7,38.7,,51.7,1127,1093,-98,1001.29,51.4,0
"2020-10-30 10:07:39+00",31.7,35.7,,51.9,1331,989,-191,1001.31,51.6,0
"2020-10-30 10:12:39+00",29.7,35.7,,52,1518,831,-212,1001.36,51.6,0
"2020-10-30 10:17:39+00",32.3,37.3,,52.1,1453,914,-142,1001.42,51.7,0
"2020-10-30 10:22:39+00",27.3,33.3,,52.5,933,838,45,1001.62,52.1,0
"2020-10-30 10:27:39+00",30.4,33.4,,52.5,1241,895,-80,1001.45,52,0
"2020-10-30 10:32:39+00",31.8,34.8,,52.6,1136,1110,-257,1001.88,52.1,0
"2020-10-30 10:37:39+00",31.4,35.4,,52.6,1429,1006,-270,1001.88,52.1,0
"2020-10-30 10:42:39+00",27.4,31.4,,52.9,806,910,-19,1002.14,52.3,0
"2020-10-30 10:47:39+00",32.6,36.6,,52.9,1076,1020,-46,1001.56,52.4,0
"2020-10-30 10:52:39+00",32.0,35.0,,53.1,989,1001,-3,1001.76,52.7,0
"2020-10-30 10:57:39+00",31.9,34.9,,53.2,1319,974,-172,1001.55,52.8,0
"2020-10-30 11:02:39+00",35.5,38.5,,52.9,1792,1061,-342,1001.27,52.9,0
"2020-10-30 11:07:39+00",31.0,35.0,,52.9,1408,864,-107,1001.49,53.2,0
"2020-10-30 11:12:39+00",37.1,40.1,,53.5,1458,1106,-83,1001.33,53.4,0
"2020-10-30 11:17:39+00",30.7,36.7,,53.6,1204,950,-108,1001.6,53.5,0
"2020-10-30 11:22:39+00",36.0,41.0,,52.6,1705,1092,-305,1001.41,52.9,0
"2020-10-30 11:27:39+00",38.3,41.3,,52,1916,1176,-443,1001.12,52.4,0
"2020-10-30 11:32:39+00",34.9,38.9,,52.2,1680,1089,-327,1000.96,52.3,0
"2020-10-30 11:37:39+00",33.6,36.6,,52.1,1277,1094,-212,1000.75,52.3,0
"2020-10-30 11:42:39+00",34.5,40.5,,51.8,1194,1213,-196,1000.95,52.2,0
"2020-10-30 11:47:39+00",34.5,43.5,,52,1208,1159,-145,1000.93,52.2,0
"2020-10-30 11:52:39+00",36.4,40.4,,51.8,1149,1218,-97,1001.08,51.9,0
"2020-10-30 11:57:39+00",33.4,39.4,,51.8,1115,1136,-145,1001.7,51.7,0
"2020-10-30 12:02:39+00",31.4,35.4,,52.2,1174,1023,-152,1002.24,52,0
"2020-10-30 12:07:39+00",35.9,39.9,,51.7,1157,1289,-180,1002.91,51.6,0
"2020-10-30 12:12:39+00",33.2,39.2,,51.2,1029,1090,-133,1003.65,51.2,0
"2020-10-30 12:17:39+00",25.9,28.9,,50.8,43,1156,-3,1004.16,50.8,0
"2020-10-30 12:22:39+00",29.7,34.7,,49.7,-723,2184,-635,1004.58,50.5,0
"2020-10-30 12:27:39+00",26.7,30.7,,49.2,-450,1806,-416,1004.72,50,0
"2020-10-30 12:32:39+00",27.6,31.6,,48.8,111,1175,32,1004.69,49.1,0
"2020-10-30 12:37:39+00",24.3,28.3,,48.4,-240,1255,-130,1004.86,49.1,0
"2020-10-30 12:42:39+00",27.3,29.3,,47.9,-260,1644,-326,1004.78,48.7,0
"2020-10-30 12:47:39+00",27.1,32.1,,47.6,-175,1548,-206,1004.82,48.2,0
"2020-10-30 12:52:39+00",29.6,32.6,,47.2,19,1235,76,1005.08,47.9,0
"2020-10-30 12:57:39+00",28.4,33.4,,46.8,9,1339,-48,1005.21,47.4,0
"2020-10-30 13:02:39+00",29.8,33.8,,46.5,23,1285,20,1005.31,47.2,0
"2020-10-30 13:07:39+00",30.7,32.7,,46.4,135,1245,72,1005.31,46.8,0
"2020-10-30 13:12:39+00",29.4,34.4,,46.3,133,1174,108,1005.38,46.5,0
"2020-10-30 13:17:39+00",31.1,35.1,,46.4,282,1073,162,1005.58,46.7,0
"2020-10-30 13:22:39+00",29.0,33.0,,46.5,-334,1684,-227,1005.87,46.9,0
"2020-10-30 13:27:39+00",32.3,36.3,,45.9,505,753,394,1005.93,46.1,0
"2020-10-30 13:32:39+00",34.6,39.6,,46,1158,-508,1218,1006.23,46.1,0
"2020-10-30 13:37:39+00",29.8,31.8,,45.8,-173,1303,32,1006.55,46.2,0
"2020-10-30 13:42:39+00",31.5,37.5,,45.4,-108,1337,75,1006.7,46.3,0
"2020-10-30 13:47:39+00",29.7,33.7,,45.2,-52,1310,55,1006.78,45.9,0
"2020-10-30 13:52:39+00",32.2,37.2,,44.7,197,951,310,1006.81,45.3,0
"2020-10-30 13:57:39+00",32.6,36.6,,44.7,180,1048,263,1007.02,45.3,0
"2020-10-30 14:02:39+00",29.0,34.0,,44.7,134,1196,97,1007.4,44.9,0
"2020-10-30 14:07:39+00",35.5,39.5,,44.2,1199,-525,1267,1007.7,44.6,0
"2020-10-30 14:12:39+00",32.0,37.0,,44.2,1051,-538,1175,1007.87,44.4,0
"2020-10-30 14:17:39+00",27.4,32.4,,44.3,181,938,174,1008.15,44.3,0
"2020-10-30 14:22:39+00",30.7,36.7,,43.9,51,1015,217,1008.25,44.6,0
"2020-10-30 14:27:39+00",31.1,36.1,,43.5,498,323,681,1008.32,44.3,0
"2020-10-30 14:32:39+00",30.4,33.4,,43.4,27,1143,166,1008.36,44.2,0
"2020-10-30 14:37:39+00",33.3,38.3,,43,99,1190,208,1008.6,43.8,0
"2020-10-30 14:42:39+00",28.9,33.9,,43,-84,1266,54,1008.65,44,0
"2020-10-30 14:47:39+00",30.9,35.9,,43,192,1164,133,1008.75,43.6,0
"2020-10-30 14:52:39+00",30.4,35.4,,42.9,29,1272,72,1008.99,43.5,0
"2020-10-30 14:57:39+00",31.3,36.3,,43.2,241,1093,160,1009.12,43.6,0
"2020-10-30 15:02:39+00",27.6,31.6,,43.4,-149,1208,74,1009.3,43.9,0
"2020-10-30 15:07:39+00",27.6,30.6,,43.9,99,963,223,1009.51,43.9,0
"2020-10-30 15:12:39+00",27.4,31.4,,43.1,17,1226,6,1009.54,43.8,0
"2020-10-30 15:17:39+00",29.5,34.5,,43.2,-269,1303,33,1009.82,43.9,0
"2020-10-30 15:22:39+00",28.1,31.1,,43.2,-284,1243,30,1010.07,44,0
"2020-10-30 15:27:39+00",25.6,29.6,,43.2,-587,1649,-335,1010.3,43.9,0
"2020-10-30 15:32:39+00",30.2,34.2,,43.2,-459,1676,-225,1010.45,44,0
"2020-10-30 15:37:39+00",27.5,30.5,,43.4,-768,1911,-457,1010.63,44,0
"2020-10-30 15:42:39+00",25.6,28.6,,43.1,-573,1497,-244,1010.71,43.7,0
"2020-10-30 15:47:39+00",29.8,32.8,,43.2,-889,2287,-654,1010.84,43.7,0
"2020-10-30 15:52:39+00",25.8,29.8,,43.3,-553,1576,-301,1011.05,43.7,0
"2020-10-30 15:57:39+00",27.1,32.1,,43.4,-293,1354,-88,1011.09,43.8,0
"2020-10-30 16:02:39+00",23.2,27.2,,43.3,-254,1156,-66,1011.18,43.7,0
"2020-10-30 16:07:39+00",25.1,28.1,,43.4,-156,1113,0,1011.24,43.9,0
"2020-10-30 16:12:39+00",25.4,30.4,,43.4,-174,1082,10,1011.32,43.8,0
"2020-10-30 16:17:39+00",23.0,27.0,,43.4,-150,1010,28,1011.57,43.8,0
"2020-10-30 16:22:39+00",26.1,30.1,,43.4,47,1131,18,1011.69,43.6,0
"2020-10-30 16:27:39+00",27.2,30.2,,43.4,49,1152,22,1011.69,43.7,0
"2020-10-30 16:32:39+00",23.9,28.9,,43.6,-345,997,21,1011.8,44.2,0
"2020-10-30 16:37:39+00",19.4,21.4,,43.4,-193,836,7,1011.88,44.2,0
"2020-10-30 16:42:39+00",21.8,23.8,,43.4,-3,963,26,1011.96,44.5,0
"2020-10-30 16:47:39+00",21.5,23.5,,42.8,-232,930,8,1012.06,44,0
"2020-10-30 16:52:39+00",20.8,25.8,,42.9,-98,925,21,1012.24,43.7,0
"2020-10-30 16:57:39+00",26.3,31.3,,42.8,-204,1138,19,1012.38,43.6,0
"2020-10-30 17:02:39+00",19.4,24.4,,43.2,-98,832,7,1012.4,43.8,0
"2020-10-30 17:07:39+00",18.8,22.8,,43,22,837,20,1012.38,43.7,0
"2020-10-30 17:12:39+00",21.2,24.2,,43,28,915,17,1012.45,43.7,0
"2020-10-30 17:17:39+00",22.5,25.5,,43.2,4,967,19,1012.58,43.6,0
"2020-10-30 17:22:39+00",21.9,25.9,,42.9,-44,942,21,1012.73,43.6,0
"2020-10-30 17:27:39+00",21.1,28.1,,42.7,-39,897,25,1012.83,43.4,0
"2020-10-30 17:32:39+00",18.7,21.7,,42.8,-102,847,24,1012.94,43.5,0
"2020-10-30 17:37:39+00",21.6,24.6,,42.5,-98,951,14,1013.16,43.3,0
"2020-10-30 17:42:39+00",22.1,26.1,,42.6,-145,965,12,1013.28,43.2,0
"2020-10-30 17:47:39+00",21.5,25.5,,42.7,-212,923,8,1013.18,43.4,0
"2020-10-30 17:52:39+00",18.5,24.5,,42.8,-158,782,49,1013.28,43.6,0
"2020-10-30 17:57:39+00",22.3,26.3,,42.7,-17,984,14,1013.51,43.6,0
"2020-10-30 18:02:39+00",22.3,27.3,,42.8,-66,1013,26,1013.63,43.5,0
"2020-10-30 18:07:39+00",23.6,28.6,,42.9,144,1024,-14,1013.89,43.4,0
"2020-10-30 18:12:39+00",19.6,23.6,,43,59,840,16,1014.06,43.3,0
"2020-10-30 18:17:39+00",18.2,21.2,,43,-199,788,10,1014.23,43.5,0
"2020-10-30 18:22:39+00",15.1,17.1,,42.8,15,661,6,1014.36,43.5,0
"2020-10-30 18:27:39+00",19.9,23.9,,42.6,-316,830,25,1014.4,43.4,0
"2020-10-30 18:32:39+00",15.7,18.7,,42.2,-206,667,60,1014.48,43.1,0
"2020-10-30 18:37:39+00",14.1,17.1,,42.1,-124,616,22,1014.65,42.9,0
"2020-10-30 18:42:39+00",16.5,19.5,,42.3,-246,680,30,1014.71,43.1,0
"2020-10-30 18:47:39+00",12.7,16.7,,42.2,-140,550,10,1014.83,42.9,0
"2020-10-30 18:52:39+00",17.6,19.6,,42.2,35,770,-16,1014.8,42.8,0
"2020-10-30 18:57:39+00",14.6,16.6,,42.3,12,647,-8,1014.7,42.9,0
"2020-10-30 19:02:39+00",12.0,14.0,,42.1,-101,515,6,1014.79,42.9,0
"2020-10-30 19:07:39+00",11.9,13.9,,42.4,-274,455,47,1015.12,43,0
"2020-10-30 19:12:39+00",14.8,16.8,,42.2,-344,546,31,1015.27,42.8,0
"2020-10-30 19:17:39+00",13.9,15.9,,42.1,-252,556,29,1015.61,42.7,0
"2020-10-30 19:22:39+00",14.5,17.5,,42.5,-149,623,25,1015.62,42.7,0
"2020-10-30 19:27:39+00",17.7,20.7,,42.7,-42,792,-1,1015.66,42.9,0
"2020-10-30 19:32:39+00",16.8,18.8,,43,-172,740,-8,1015.59,43.2,0
"2020-10-30 19:37:39+00",16.8,20.8,,43.1,-82,727,15,1015.77,43.4,0
"2020-10-30 19:42:39+00",14.6,18.6,,43.2,-67,662,1,1015.99,43.5,0
"2020-10-30 19:47:39+00",12.3,16.3,,43.4,-92,524,38,1016.23,43.7,0
"2020-10-30 19:52:39+00",16.2,18.2,,43.3,-159,704,-4,1016.45,43.7,0
"2020-10-30 19:57:39+00",11.3,14.3,,43.4,-126,468,42,1016.43,43.8,0
"2020-10-30 20:02:39+00",16.4,18.4,,43.5,-385,617,31,1016.45,43.9,0
"2020-10-30 20:07:39+00",14.7,15.7,,43.6,-187,624,1,1016.54,44,0
"2020-10-30 20:12:39+00",14.6,15.6,,43.4,-291,574,10,1016.65,43.8,0
"2020-10-30 20:17:39+00",12.4,14.4,,43.6,-286,454,23,1016.87,43.9,0
"2020-10-30 20:22:39+00",12.2,14.2,,43.7,-199,495,7,1016.86,44,0
"2020-10-30 20:27:39+00",10.2,12.2,,44.1,-217,402,45,1016.79,44.3,0
"2020-10-30 20:32:39+00",12.5,13.5,,44,-224,508,2,1016.99,44.5,0
"2020-10-30 20:37:39+00",14.4,17.4,,44,-457,469,38,1017.08,44.4,0
"2020-10-30 20:42:39+00",12.6,15.6,,44,-445,338,34,1017.26,44.5,0
"2020-10-30 20:47:39+00",9.6,11.6,,44.2,-200,381,35,1017.41,44.7,0
"2020-10-30 20:52:39+00",12.5,14.5,,44.3,-243,505,4,1017.52,44.7,0
"2020-10-30 20:57:39+00",12.7,15.7,,44.3,-351,445,23,1017.64,44.7,0
"2020-10-30 21:02:39+00",12.1,14.1,,44.2,-325,426,13,1017.9,44.6,0
"2020-10-30 21:07:39+00",10.8,12.8,,44.4,-354,326,36,1018.02,44.7,0
"2020-10-30 21:12:39+00",10.8,11.8,,44.3,-279,390,15,1018.05,44.7,0
"2020-10-30 21:17:39+00",9.8,10.8,,44.5,-307,318,53,1018.4,44.6,0
"2020-10-30 21:22:39+00",13.5,15.5,,44.6,-423,429,13,1018.52,44.8,0
"2020-10-30 21:27:39+00",13.3,14.3,,44.7,-417,420,20,1018.65,44.8,0
"2020-10-30 21:32:39+00",12.1,14.1,,44.9,-304,447,42,1018.85,45,0
"2020-10-30 21:37:39+00",11.4,14.4,,44.8,-367,356,36,1018.87,45,0
"2020-10-30 21:42:39+00",10.5,12.5,,44.8,-358,343,45,1018.97,45,0
"2020-10-30 21:47:39+00",9.4,11.4,,44.7,-201,345,18,1018.94,44.8,0
"2020-10-30 21:52:39+00",8.7,10.7,,44.8,-239,305,22,1018.92,44.8,0
"2020-10-30 21:57:39+00",8.3,9.3,,44.8,-126,341,5,1018.96,44.8,0
"2020-10-30 22:02:39+00",5.6,6.6,,44.8,-105,224,28,1018.93,44.7,0
"2020-10-30 22:07:39+00",7.0,8.0,,44.7,-177,260,11,1019.02,44.5,0
"2020-10-30 22:12:39+00",7.9,9.9,,44.8,-220,257,14,1019.05,44.4,0
"2020-10-30 22:17:39+00",6.8,7.8,,44.9,-193,241,20,1019.18,44.4,0
"2020-10-30 22:22:39+00",7.0,8.0,,44.9,-193,247,23,1019.19,44.3,0
"2020-10-30 22:27:39+00",7.5,8.5,,45,-135,297,8,1019.4,44.3,0
"2020-10-30 22:32:39+00",7.9,8.9,,45,-233,265,25,1019.58,44.3,0
"2020-10-30 22:37:39+00",8.4,9.4,,44.9,-184,316,10,1019.7,44.2,0
"2020-10-30 22:42:39+00",8.8,9.8,,44.9,-266,289,23,1019.87,44.3,0
"2020-10-30 22:47:39+00",8.9,9.9,,44.9,-198,335,2,1019.92,44.3,0
"2020-10-30 22:52:39+00",8.0,9.0,,45,-177,306,11,1020.03,44.3,0
"2020-10-30 22:57:39+00",7.7,8.7,,45,-166,291,7,1020.01,44.4,0
"2020-10-30 23:02:39+00",7.0,8.0,,45,-167,267,38,1020.05,44.3,0
"2020-10-30 23:07:39+00",7.7,8.7,,45,-92,320,-16,1020.15,44.2,0
"2020-10-30 23:12:39+00",6.4,7.4,,44.9,-18,277,8,1020.29,44.1,0
"2020-10-30 23:17:39+00",6.5,7.5,,44.8,-76,269,-3,1020.41,44,0
"2020-10-30 23:22:39+00",7.3,8.3,,44.7,-81,308,-4,1020.64,44,0
"2020-10-30 23:27:39+00",7.1,8.1,,44.8,-108,293,17,1020.63,44,0
"2020-10-30 23:32:39+00",9.3,10.3,,45,-133,387,8,1020.81,44.2,0
"2020-10-30 23:37:39+00",9.3,10.3,,45,-135,382,35,1020.85,44.2,0
"2020-10-30 23:42:39+00",10.8,11.8,,45,-141,452,-8,1020.87,44.4,0
"2020-10-30 23:47:39+00",11.9,13.9,,45.1,-189,484,3,1021.04,44.6,0
"2020-10-30 23:52:39+00",12.0,14.0,,45.3,-166,503,22,1021.21,44.8,0
"2020-10-30 23:57:39+00",11.8,12.8,,45.3,-252,453,41,1021.3,45,0
